Weather observations for the past three days for
El Dorado Captain Jack Thomas Airport
Metric (Imperial)
Date Time (cdt) Wind (kph) Vis. (km) Weather Sky Cond. Temperature (ºC) Relative Humidity Wind Chill (°C) Heat Index (°C) Pressure Precipitation (cm)
Air Dwpt 6 hour altimeter (cm) sea level (mb) 1 hr 3 hr 6 hr
Max. Min.
08 09:55 SW 20 G 35 16.09 Fair CLR 20 10 53% 75.79 0.0
08 09:35 SW 24 G 31 16.09 Fair CLR 19 10 56% 75.79 0.0
08 09:15 SW 24 G 31 16.09 Fair CLR 19 10 56% 75.82 0.0
08 08:55 SW 22 G 30 16.09 Fair CLR 18 9 56% 75.82 0.0
08 08:35 SW 22 G 31 16.09 Fair CLR 17 9 60% 75.82 0.0
08 08:15 SW 19 G 26 16.09 Fair CLR 16 8 59% 75.82 0.0
08 07:55 S 19 16.09 Fair CLR 15 8 63% 75.82 0.0
08 07:35 S 19 16.09 Fair CLR 14 7 63% 75.82 0.0
08 07:15 S 15 16.09 Fair CLR 13 7 67% 75.82 0.0
08 06:55 S 19 16.09 Fair CLR 13 7 67% 75.82 0.0
08 06:35 S 15 16.09 Fair CLR 13 7 67% 75.79 0.0
08 06:15 S 17 16.09 Fair CLR 13 6 63% 75.79 0.0
08 05:55 S 15 16.09 Fair CLR 13 6 63% 75.79 0.0
08 05:35 S 15 16.09 Fair CLR 13 6 63% 75.79 0.0
08 05:15 S 15 16.09 Fair CLR 13 6 63% 75.79 0.0
08 04:55 S 17 16.09 Fair CLR 13 6 63% 75.79 0.0
08 04:35 S 19 16.09 Fair CLR 13 6 63% 75.77 0.0
08 04:15 S 17 16.09 Fair CLR 13 5 59% 75.79 0.0
08 03:55 S 17 16.09 Fair CLR 14 5 55% 75.79 0.0
08 03:35 S 17 16.09 Fair CLR 14 5 55% 75.79 0.0
08 03:15 S 17 16.09 Fair CLR 13 5 59% 75.79 0.0
08 02:55 S 15 16.09 Fair CLR 13 5 59% 75.82 0.0
08 02:35 S 15 16.09 Fair CLR 14 5 55% 75.82 0.0
08 02:15 S 15 16.09 Fair CLR 14 5 55% 75.84 0.0
08 01:55 S 17 16.09 Fair CLR 15 5 51% 75.84 0.0
08 01:35 S 17 16.09 Fair CLR 15 5 51% 75.84 0.0
08 01:15 S 17 16.09 Fair CLR 15 5 51% 75.84 0.0
08 00:55 S 19 16.09 Fair CLR 16 4 45% 75.84 0.0
08 00:35 S 19 16.09 Fair CLR 15 4 48% 75.84 0.0
08 00:15 S 17 16.09 Fair CLR 15 4 48% 75.84 0.0
07 23:55 S 17 16.09 Fair CLR 16 3 42% 75.84 0.0
07 23:35 S 20 16.09 Fair CLR 16 3 42% 75.87 0.0
07 23:15 S 20 16.09 Fair CLR 16 3 42% 75.87 0.0
07 22:55 S 20 16.09 Fair CLR 16 4 45% 75.87 0.0
07 22:35 S 20 16.09 Fair CLR 17 5 45% 75.87 0.0
07 22:15 S 22 16.09 Fair CLR 17 4 42% 75.87 0.0
07 21:55 S 22 G 30 16.09 Fair CLR 17 4 42% 75.87 0.0
07 21:35 S 19 16.09 Fair CLR 17 3 39% 75.87 0.0
07 21:15 S 19 16.09 Fair CLR 17 2 37% 75.84 0.0
07 20:55 S 15 16.09 Fair CLR 17 3 39% 75.84 0.0
07 20:35 S 13 16.09 Fair CLR 18 3 37% 75.82 0.0
07 20:15 S 15 16.09 Fair CLR 19 3 35% 75.79 0.0
07 19:55 S 13 16.09 Fair CLR 21 3 31% 75.79 0.0
07 19:35 S 13 16.09 Fair CLR 22 2 27% 75.79 0.0
07 19:15 S 19 16.09 Fair CLR 23 1 23% 75.82 0.0
07 18:55 SW 22 G 28 16.09 Fair CLR 23 1 23% 75.82 0.0
07 18:35 SW 17 16.09 Fair CLR 24 2 24% 25 75.82 0.0
07 18:15 SW 20 G 28 16.09 Fair CLR 24 1 22% 25 75.82 0.0
07 17:55 SW 22 16.09 Fair CLR 24 1 22% 25 75.84 0.0
07 17:35 SW 22 G 31 16.09 Fair CLR 25 2 22% 25 75.87 0.0
07 17:15 SW 20 G 33 16.09 Fair CLR 24 1 22% 25 75.87 0.0
07 16:55 SW 24 16.09 Fair CLR 24 2 24% 25 75.9 0.0
07 16:35 W 19 G 28 16.09 Fair CLR 24 2 24% 25 75.9 0.0
07 16:15 SW 24 G 30 16.09 Fair CLR 23 1 23% 75.92 0.0
07 15:15 SW 28 G 33 16.09 Fair CLR 23 2 25% 76.02 0.0
07 14:55 SW 20 G 33 16.09 Fair CLR 23 2 25% 76.05 0.0
07 14:35 SW 24 16.09 Fair CLR 22 2 27% 76.07 0.0
07 14:15 SW 20 G 33 16.09 Fair CLR 22 2 27% 76.1 0.0
07 13:55 SW 20 G 35 16.09 Fair CLR 21 2 29% 76.1 0.0
07 13:35 SW 30 G 44 16.09 Fair CLR 21 3 31% 76.12 0.0
07 13:15 SW 24 G 41 16.09 Fair CLR 20 3 33% 76.15 0.0
07 12:55 SW 26 G 37 16.09 Fair CLR 20 4 35% 76.17 0.0
07 12:35 W 31 G 39 16.09 Fair CLR 20 4 35% 76.2 0.0
07 12:15 SW 28 G 43 16.09 Fair CLR 19 4 37% 76.25 0.0
07 11:55 SW 28 G 37 16.09 Fair CLR 18 4 40% 76.28 0.0
07 11:35 SW 26 G 35 16.09 Partly Cloudy SCT044 18 5 43% 76.28 0.0
07 11:15 SW 28 G 39 16.09 Fair CLR 18 5 43% 76.3 0.0
07 10:55 SW 31 G 37 16.09 Partly Cloudy SCT040 17 5 45% 76.3 0.0
07 10:35 SW 22 G 35 16.09 Partly Cloudy SCT040 16 5 48% 76.3 0.0
07 10:15 SW 26 G 39 16.09 Fair CLR 16 5 48% 76.33 0.0
07 09:55 SW 20 G 31 16.09 Fair CLR 15 5 51% 76.35 0.0
07 09:35 SW 19 16.09 Fair CLR 15 6 55% 76.35 0.0
07 09:15 SW 17 16.09 Fair CLR 13 6 63% 76.38 0.0
07 08:55 SW 13 16.09 Fair CLR 13 6 63% 76.38 0.0
07 08:35 SW 11 16.09 Fair CLR 12 7 72% 76.4 0.0
07 08:15 SW 11 16.09 Fair CLR 11 7 77% 76.4 0.0
07 07:55 SW 7 16.09 Fair CLR 10 7 82% 9 76.4 0.0
07 07:35 Calm 16.09 Fair CLR 9 7 87% 76.4 0.0
07 07:15 Calm 16.09 Fair CLR 7 5 87% 76.4 0.0
07 06:55 Calm 16.09 Fair CLR 7 5 87% 76.38 0.0
07 06:35 SW 6 16.09 Fair CLR 7 5 87% 76.35 0.0
07 06:15 SW 7 16.09 Fair CLR 7 5 87% 6 76.35 0.0
07 05:55 SW 6 16.09 Fair CLR 6 5 93% 76.35 0.0
07 05:35 SW 7 16.09 Fair CLR 6 5 93% 5 76.38 0.0
07 05:15 SW 6 16.09 Fair CLR 7 6 93% 76.38 0.0
07 04:55 Calm 16.09 Fair CLR 7 6 93% 76.38 0.0
07 04:35 Calm 16.09 Fair CLR 7 5 87% 76.4 0.0
07 04:15 Calm 16.09 Mostly Cloudy BKN090 8 6 87% 76.4 0.0
07 03:55 Calm 16.09 Overcast OVC090 8 6 87% 76.4 0.0
07 03:35 Calm 16.09 Mostly Cloudy BKN090 7 5 87% 76.4 0.0
07 03:15 Calm 16.09 Partly Cloudy SCT090 8 5 82% 76.43 0.0
07 02:55 NW 7 16.09 Mostly Cloudy BKN090 9 6 82% 8 76.43 0.0
07 02:35 Calm 16.09 Overcast OVC090 10 6 76% 76.43 0.0
07 02:15 Calm 16.09 Overcast OVC090 9 6 82% 76.43 0.0
07 01:55 W 6 16.09 Mostly Cloudy SCT090 BKN120 9 6 82% 76.45 0.0
07 01:35 Calm 16.09 Overcast SCT095 OVC120 9 7 87% 76.43 0.0
07 01:15 Calm 16.09 Overcast OVC120 10 6 76% 76.43 0.0
07 00:55 Calm 16.09 Overcast OVC120 10 6 76% 76.45 0.0
07 00:35 Calm 16.09 Overcast OVC120 9 6 82% 76.45 0.0
07 00:15 Calm 16.09 Mostly Cloudy BKN120 8 6 87% 76.45 0.0
06 23:55 Calm 16.09 Partly Cloudy SCT120 9 6 82% 76.45 0.0
06 23:35 Calm 16.09 Fair CLR 10 6 76% 76.45 0.0
06 23:15 Calm 16.09 Mostly Cloudy BKN100 11 6 72% 76.45 0.0
06 22:55 Calm 16.09 Overcast OVC110 11 5 67% 76.45 0.0
06 22:35 Calm 16.09 Overcast OVC110 11 6 72% 76.45 0.0
06 22:15 NE 6 16.09 Overcast OVC110 11 7 77% 76.45 0.0
06 21:55 NE 7 16.09 Overcast OVC100 11 5 67% 76.45 0.0
06 21:35 NE 7 16.09 Overcast SCT065 OVC100 12 3 54% 76.43 0.0
06 21:15 NE 7 16.09 Mostly Cloudy SCT065 BKN100 12 3 54% 76.43 0.0
06 20:55 NE 6 16.09 Partly Cloudy SCT065 SCT110 12 2 51% 76.4 0.0
06 20:35 NE 6 16.09 Mostly Cloudy SCT065 BKN110 12 4 58% 76.38 0.0
06 20:15 NE 6 16.09 Overcast OVC110 13 4 55% 76.38 0.0
06 19:55 Calm 16.09 Mostly Cloudy BKN110 12 4 58% 76.35 0.0
06 19:35 N 6 16.09 Partly Cloudy SCT060 SCT100 13 3 51% 76.35 0.0
06 19:15 N 9 16.09 Mostly Cloudy BKN060 BKN110 15 2 42% 76.35 0.0
06 18:55 N 11 16.09 Partly Cloudy SCT060 16 1 36% 76.33 0.0
06 18:35 N 13 16.09 Mostly Cloudy BKN060 16 2 39% 76.33 0.0
06 18:15 N 17 16.09 Mostly Cloudy BKN060 16 2 39% 76.33 0.0
06 17:55 NE 15 16.09 Overcast OVC060 15 2 42% 76.33 0.0
06 17:35 NE 13 16.09 Partly Cloudy SCT060 16 1 36% 76.3 0.0
06 17:15 N 17 16.09 Partly Cloudy SCT060 17 1 34% 76.3 0.0
06 16:55 NE 9 G 28 16.09 Partly Cloudy SCT055 17 1 34% 76.33 0.0
06 16:35 N 19 G 26 16.09 Partly Cloudy SCT055 SCT085 17 2 37% 76.33 0.0
06 16:15 NE 7 16.09 Partly Cloudy SCT085 17 1 34% 76.33 0.0
06 15:55 N 11 16.09 Partly Cloudy SCT055 SCT080 17 1 34% 76.38 0.0
06 15:35 N 17 16.09 Partly Cloudy SCT080 16 1 36% 76.38 0.0
06 15:15 N 9 G 26 16.09 Fair CLR 16 0 34% 76.4 0.0
06 14:55 N 15 16.09 Partly Cloudy SCT110 16 1 36% 76.43 0.0
06 14:35 NE 15 16.09 Mostly Cloudy BKN100 16 1 36% 76.43 0.0
06 14:15 NE 7 G 31 16.09 Mostly Cloudy BKN090 16 0 34% 76.43 0.0
06 13:35 NE 13 16.09 Mostly Cloudy BKN090 16 0 34% 76.45 0.0
06 13:15 NE 22 G 31 16.09 Overcast SCT050 OVC090 15 1 39% 76.45 0.0
06 12:55 NE 24 G 31 16.09 Overcast OVC090 15 1 39% 76.48 0.0
06 12:35 N 22 G 30 16.09 Overcast OVC090 15 1 39% 76.48 0.0
06 12:15 NE 17 G 28 16.09 Overcast OVC090 15 2 42% 76.5 0.0
06 11:55 N 20 G 30 16.09 Overcast OVC090 14 3 48% 76.5 0.0
06 11:35 N 17 16.09 Overcast OVC080 13 4 55% 76.5 0.0
06 11:15 N 13 16.09 Overcast OVC080 12 4 58% 76.5 0.0
06 10:55 N 13 16.09 Overcast OVC080 11 4 62% 76.5 0.0
06 10:35 N 15 16.09 Overcast OVC080 11 5 67% 76.48 0.0
06 10:15 N 17 16.09 Overcast OVC080 11 5 67% 76.48 0.0
06 09:55 NE 13 16.09 Overcast OVC080 10 5 71% 8 76.48 0.0
06 09:35 N 11 16.09 Overcast OVC080 10 5 71% 9 76.48 0.0
06 09:15 N 15 16.09 Overcast OVC080 10 6 76% 8 76.45 0.0
06 08:55 N 11 16.09 Overcast OVC080 9 5 76% 8 76.43 0.0
06 08:35 N 11 16.09 Overcast OVC080 9 6 82% 8 76.45 0.0
06 08:15 NE 7 16.09 Overcast OVC080 9 6 82% 8 76.43 0.0
06 07:55 NE 6 16.09 Overcast OVC090 8 6 87% 76.4 0.0
06 07:35 N 9 16.09 Overcast OVC090 8 6 87% 7 76.4 0.0
06 07:15 N 11 16.09 Overcast OVC090 7 6 93% 5 76.4 0.0
06 06:55 N 11 16.09 Overcast OVC090 7 6 93% 5 76.33 0.0
06 06:35 Calm 16.09 Overcast OVC090 7 6 93% 76.28 0.0
06 06:15 Calm 16.09 Overcast OVC090 7 6 93% 76.3 0.0
06 05:55 Calm 16.09 Overcast SCT065 OVC090 7 5 87% 76.28 0.0
06 05:35 NE 7 16.09 Overcast OVC080 7 5 87% 6 76.28 0.0
06 05:15 N 9 16.09 Overcast BKN080 OVC100 7 5 87% 5 76.28 0.0
06 04:55 NE 13 16.09 Overcast OVC090 7 5 87% 5 76.23 0.0
06 04:35 NE 11 16.09 Overcast SCT050 SCT060 OVC090 7 5 87% 5 76.25 0.0
06 04:15 N 11 16.09 Light Drizzle SCT043 OVC060 7 5 87% 5 76.28 0.0
06 03:55 NE 13 16.09 Drizzle BKN043 OVC050 7 5 87% 5 76.23 0.0 0.08
06 03:35 NE 19 16.09 Light Rain SCT043 BKN050 OVC065 7 5 87% 4 76.25 0.0 0.03
06 03:15 NE 19 G 30 16.09 Overcast OVC065 7 5 87% 4 76.23 0.0
06 02:55 NE 20 G 35 16.09 Light Rain BKN075 OVC080 7 5 87% 4 76.15 0.0 0.03
06 02:35 NE 22 16.09 Light Rain SCT039 OVC085 7 5 87% 4 76.15 0.0 0.03
06 02:15 N 22 G 30 16.09 Light Rain BKN039 BKN050 OVC065 8 5 82% 5 76.17 0.0
06 01:55 N 22 16.09 Light Rain OVC065 8 5 82% 5 76.17 0.0 0.03
06 01:35 NE 24 16.09 Light Rain OVC065 8 4 76% 5 76.12 0.0
06 00:55 N 26 G 37 16.09 Overcast OVC065 10 4 67% 7 76.1 0.0
06 00:35 N 22 G 30 16.09 Overcast OVC065 10 2 58% 7 76.12 0.0
06 00:15 N 22 G 35 16.09 Overcast OVC065 11 2 54% 76.1 0.0
05 23:55 NE 20 G 33 16.09 Overcast OVC065 11 2 54% 76.07 0.0
05 23:35 N 17 G 30 16.09 Overcast OVC065 11 3 58% 76.1 0.0
05 23:15 NE 24 G 33 16.09 Overcast OVC065 11 3 58% 76.07 0.0
05 22:55 N 11 16.09 Overcast OVC065 11 3 58% 76.12 0.0
05 22:35 NE 15 16.09 Overcast OVC065 11 3 58% 76.1 0.0
05 22:15 N 19 G 30 16.09 Overcast SCT029 SCT035 OVC065 11 5 67% 76.1 0.0
05 21:55 N 13 16.09 Overcast SCT029 SCT035 OVC065 10 7 82% 8 76.1 0.0
05 21:35 N 15 16.09 Light Rain OVC065 10 7 82% 8 76.05 0.0
05 21:15 N 9 16.09 Overcast OVC065 11 6 72% 76.02 0.0
05 20:55 Calm 16.09 Overcast OVC065 11 7 77% 76 0.0
05 20:35 NE 7 16.09 Overcast OVC065 11 7 77% 75.95 0.0
05 20:15 Calm 16.09 Overcast OVC065 11 7 77% 75.95 0.0
05 19:55 NE 6 16.09 Overcast OVC065 11 6 72% 75.95 0.0
05 19:35 NE 11 16.09 Overcast OVC065 11 6 72% 75.9 0.0
05 19:15 NE 13 16.09 Overcast OVC065 11 6 72% 75.9 0.0
05 18:55 NE 17 16.09 Overcast OVC065 11 6 72% 75.92 0.0
05 18:35 NE 17 16.09 Overcast OVC065 11 6 72% 75.9 0.0
05 18:15 NE 17 16.09 Overcast OVC065 11 6 72% 75.9 0.0
05 17:55 NE 15 16.09 Overcast OVC065 11 6 72% 75.9 0.0
05 17:35 NE 19 16.09 Overcast OVC065 10 6 76% 8 75.87 0.0
05 17:15 NE 17 16.09 Light Rain OVC055 10 6 76% 8 75.9 0.0
05 16:55 NE 17 G 22 16.09 Overcast SCT020 OVC055 11 5 67% 75.92 0.0
05 16:35 NE 22 G 33 16.09 Overcast SCT020 SCT049 OVC055 11 5 67% 75.92 0.0
05 16:15 NE 24 16.09 Overcast SCT020 SCT025 OVC055 11 5 67% 75.92 0.0
05 15:55 NE 28 16.09 Overcast OVC055 11 4 62% 75.92 0.0
05 15:35 NE 31 G 43 16.09 Overcast SCT021 BKN045 OVC055 11 4 62% 75.92 0.0
05 15:15 NE 28 G 37 16.09 Overcast BKN021 BKN042 OVC050 11 5 67% 75.92 0.0
05 14:55 NE 31 G 41 16.09 Overcast SCT042 OVC050 11 5 67% 75.92 0.0
05 14:35 NE 28 G 41 16.09 Overcast OVC050 11 4 62% 75.92 0.0
05 14:15 NE 31 G 54 16.09 Overcast OVC050 11 3 58% 75.9 0.0
05 13:55 NE 43 G 54 16.09 Overcast and Windy OVC050 11 2 54% 75.87 0.0
05 13:35 NE 33 G 44 16.09 Overcast and Breezy OVC050 12 4 58% 75.87 0.0
05 13:15 NE 37 G 46 16.09 Overcast and Breezy OVC050 11 4 62% 75.87 0.0
05 12:55 NE 41 G 46 16.09 Overcast and Breezy OVC050 12 4 58% 75.9 0.0
05 12:35 NE 28 G 46 16.09 Overcast OVC050 11 4 62% 75.9 0.0
05 12:15 NE 37 G 50 16.09 Overcast and Breezy OVC050 11 3 58% 75.9 0.0
05 11:55 NE 41 G 52 16.09 Overcast and Breezy OVC050 11 3 58% 75.87 0.0
05 11:35 NE 30 G 52 16.09 Overcast OVC050 12 3 54% 75.87 0.0
05 11:15 NE 39 G 52 16.09 Overcast and Breezy OVC050 12 4 58% 75.84 0.0
05 10:55 NE 41 G 54 16.09 Overcast and Breezy OVC050 11 4 62% 75.79 0.0
05 10:35 NE 35 G 50 16.09 Overcast and Breezy OVC050 11 3 58% 75.79 0.0
05 10:15 NE 37 G 52 16.09 Overcast and Breezy OVC050 11 3 58% 75.79 0.0
Date Time (cdt) Wind (kph) Vis. (km) Weather Sky Cond. Air Dwpt Max. Min. Relative Humidity Wind Chill (°C) Heat Index (°C) altimeter (cm) sea level (mb) 1 hr 3 hr 6 hr
6 hour
Temperature (ºC) Pressure Precipitation (cm)